[[{"header":{"parameterUnit":"m.s-1","parameterCategory":1,"la1":30.2991,"la2":30.254,"lo1":-89.0895,"lo2":-89.0444,"dy":0.0017,"dx":0.0017,"nx":28,"ny":28,"refTime":"2025-08-06T21:00:00:Z","depth":0,"parameterNumber":2,"parameterNumberName":"U-component_of_WINDS"},"data":[0,0,0,0,0,0,0,0,0,0,0,0,0,0,0,0,0,0,0,0,0,0,0,0,0,0,0,0,0,0,0,0,0,0,0,0,0,0,0,0,0,0,0,0,0,0,0,0,0,0,0,0,0,0,0,0,0,0,-1.4165,-1.4165,0,-1.4194,-1.4194,-1.4194,-1.4226,-1.4227,-1.4227,-1.4227,-1.4257,-1.4257,-1.4258,0,0,0,0,0,0,0,0,0,0,0,0,0,-1.4138,-1.4138,-1.4165,-1.4165,-1.4166,-1.4194,-1.4194,-1.4195,-1.4226,-1.4227,-1.4227,-1.4228,-1.4257,-1.4257,-1.4258,0,0,0,0,0,0,0,0,0,0,0,0,0,-1.4157,-1.4139,-1.4165,-1.4185,-1.4187,-1.4194,-1.4194,-1.4195,-1.4226,-1.4227,-1.4227,-1.4228,-1.4257,-1.4257,-1.4258,-1.4247,0,0,-1.4259,-1.426,0,0,0,0,0,0,0,0,-1.4156,-1.4158,-1.4181,-1.4183,-1.4186,-1.4207,-1.4196,-1.4212,-1.4226,-1.4211,-1.4227,-1.4228,-1.424,-1.4242,-1.4246,-1.4249,-1.425,-1.4259,-1.426,-1.426,-1.426,0,0,0,0,0,0,0,-1.4154,-1.4157,-1.4176,-1.4182,-1.4184,-1.4193,-1.4196,-1.4199,-1.4221,-1.4212,-1.4215,-1.4218,-1.4241,-1.4245,-1.4247,-1.425,-1.4259,-1.426,-1.426,-1.426,-1.4249,-1.4248,0,0,0,0,0,0,-1.415,-1.4155,-1.4175,-1.4177,-1.4172,-1.4192,-1.4196,-1.4199,-1.4221,-1.4225,-1.4217,-1.4219,-1.4244,-1.4246,-1.4248,-1.4238,-1.426,-1.426,-1.4261,-1.4249,-1.4249,-1.4248,0,0,0,0,0,0,-1.4149,-1.4151,-1.4174,-1.4167,-1.417,-1.4192,-1.4196,-1.42,-1.4204,-1.4225,-1.4229,-1.4217,-1.4244,-1.4247,-1.4248,-1.424,-1.4261,-1.4261,-1.425,-1.4249,-1.4248,-1.4219,0,0,0,0,0,0,-1.4148,-1.4151,-1.4147,-1.4167,-1.4171,-1.4173,-1.4195,-1.42,-1.4205,-1.4207,-1.4226,-1.423,-1.4245,-1.4247,-1.4248,-1.4241,-1.4262,-1.4251,-1.425,-1.4249,-1.422,-1.4217,-1.4214,0,0,0,0,0,-1.4147,-1.4137,-1.4146,-1.4149,-1.4166,-1.4173,-1.4175,-1.4193,-1.4204,-1.42,-1.4214,-1.4229,-1.424,-1.4247,-1.4249,-1.4241,-1.4252,-1.425,-1.4249,-1.4222,-1.4217,-1.4214,0,0,0,0,0,0,-1.4115,-1.414,-1.4151,-1.4146,-1.4157,-1.4178,-1.4174,-1.4188,-1.4196,-1.4198,-1.422,-1.4224,-1.4223,-1.4232,-1.4238,-1.4233,-1.4248,-1.4247,-1.4227,-1.4223,-1.422,-1.4218,-1.4262,0,0,0,0,0,-1.4107,-1.411,-1.4132,-1.4126,-1.4131,-1.4152,-1.4155,-1.4168,-1.4181,-1.4185,-1.4199,-1.4211,-1.4217,-1.4221,-1.4228,-1.4222,-1.4227,-1.4218,-1.4215,-1.4212,-1.4211,-1.421,-1.4207,-1.4243,-1.4243,-1.4243,0,0,-1.4092,-1.4106,-1.4106,-1.412,-1.413,-1.4134,-1.4155,-1.4157,-1.416,-1.4186,-1.4187,-1.4198,-1.4213,-1.4211,-1.421,-1.4218,-1.4202,-1.421,-1.4208,-1.4208,-1.4208,-1.4205,-1.4202,-1.4242,-1.4243,-1.4243,0,0,-1.4065,-1.4075,-1.4072,-1.4082,-1.4098,-1.4111,-1.4111,-1.413,-1.4138,-1.414,-1.416,-1.4164,-1.4174,-1.4184,-1.419,-1.417,-1.4184,-1.4171,-1.4154,-1.4153,-1.415,-1.4147,-1.4141,-1.4138,-1.417,-1.417,-1.417,0,-1.4043,-1.4049,-1.4069,-1.4071,-1.4077,-1.41,-1.4098,-1.4107,-1.4123,-1.4127,-1.4136,-1.4151,-1.4162,-1.4163,-1.4158,-1.4162,-1.4163,-1.4169,-1.4149,-1.4146,-1.4144,-1.4139,-1.4136,-1.4168,-1.4169,-1.4169,-1.4169,0,-1.4022,-1.4026,-1.4022,-1.4038,-1.4044,-1.4043,-1.4064,-1.4067,-1.4081,-1.4094,-1.4097,-1.4111,-1.4122,-1.4124,-1.4136,-1.4128,-1.4132,-1.4144,-1.416,-1.4139,-1.4134,-1.4132,-1.4166,-1.4167,-1.4167,-1.4167,0,0,-1.3975,-1.4004,-1.4002,-1.401,-1.4029,-1.4033,-1.4034,-1.4045,-1.4048,-1.4059,-1.4062,-1.4071,-1.4083,-1.409,-1.4104,-1.4103,-1.4087,-1.4116,-1.4117,-1.4111,-1.408,-1.4071,-1.4068,-1.4097,-1.4097,-1.4097,-1.4079,0,-1.3953,-1.3956,-1.3975,-1.3973,-1.3977,-1.4001,-1.4002,-1.4015,-1.4027,-1.4033,-1.4048,-1.4054,-1.4069,-1.4074,-1.4074,-1.4089,-1.4081,-1.4091,-1.41,-1.41,-1.4096,-1.4065,-1.4055,-1.4038,-1.4077,-1.4077,-1.4076,0,-1.3926,-1.3936,-1.3935,-1.3956,-1.3958,-1.3959,-1.3972,-1.3977,-1.3992,-1.4001,-1.401,-1.4027,-1.403,-1.4045,-1.4051,-1.4057,-1.4062,-1.407,-1.407,-1.4071,-1.4087,-1.4066,-1.4032,-1.403,-1.4073,-1.4074,-1.4074,0,-1.3893,-1.3906,-1.3908,-1.3914,-1.3938,-1.3938,-1.3948,-1.3964,-1.397,-1.3981,-1.3985,-1.3997,-1.4003,-1.4012,-1.4031,-1.404,-1.4035,-1.4051,-1.4044,-1.4044,-1.4042,-1.4042,-1.4009,-1.4045,-1.4045,-1.4045,-1.4045,0,-1.3866,-1.3864,-1.3893,-1.3894,-1.3894,-1.3916,-1.3915,-1.3927,-1.3941,-1.3946,-1.3966,-1.397,-1.3995,-1.4002,-1.4017,-1.4021,-1.4023,-1.4032,-1.4036,-1.403,-1.4029,-1.4034,-1.4035,-1.4044,-1.4044,-1.4044,-1.4044,0,-1.3829,-1.3848,-1.3851,-1.3874,-1.388,-1.3878,-1.3898,-1.39,-1.3915,-1.392,-1.3923,-1.3946,-1.3955,-1.3975,-1.399,-1.4,-1.4,-1.4007,-1.3995,-1.3998,-1.3989,-1.399,-1.3959,-1.3956,-1.3993,-1.3992,-1.3992,0,-1.381,-1.381,-1.3833,-1.3837,-1.3847,-1.3853,-1.386,-1.3882,-1.3888,-1.3906,-1.3906,-1.3917,-1.3927,-1.3941,-1.396,-1.3971,-1.3979,-1.3967,-1.3981,-1.3976,-1.398,-1.398,-1.398,-1.3964,-1.3964,-1.3963,-1.3963,0,-1.3776,-1.3786,-1.3794,-1.3806,-1.3814,-1.3824,-1.3836,-1.3839,-1.3864,-1.387,-1.388,-1.3888,-1.3903,-1.3914,-1.3929,-1.394,-1.3956,-1.3959,-1.3958,-1.3952,-1.3945,-1.395,-1.3987,-1.3959,-1.396,-1.396,-1.396,-1.396,-1.3748,-1.3749,-1.3766,-1.3775,-1.3787,-1.3797,-1.3801,-1.3816,-1.3825,-1.3839,-1.3852,-1.3861,-1.3878,-1.3899,-1.391,-1.3918,-1.3925,-1.3924,-1.3924,-1.3923,-1.3921,-1.3944,-1.392,-1.392,-1.3921,-1.3921,-1.3921,0,-1.3716,-1.3728,-1.3736,-1.3752,-1.376,-1.3774,-1.3788,-1.3794,-1.3801,-1.3816,-1.3825,-1.3837,-1.3849,-1.3868,-1.3881,-1.3884,-1.3892,-1.3887,-1.3887,-1.389,-1.3913,-1.3912,-1.388,-1.388,-1.388,-1.388,-1.388,-1.388,-1.37,-1.3703,-1.3715,-1.3724,-1.3737,-1.3746,-1.3753,-1.3763,-1.3775,-1.3787,-1.3797,-1.381,-1.3826,-1.3841,-1.3852,-1.3858,-1.3862,-1.3855,-1.3863,-1.3884,-1.3888,-1.3891,-1.3891,-1.3855,-1.3855,-1.3839,-1.3839,-1.3839]},{"header":{"parameterUnit":"m.s-1","parameterCategory":1,"la1":30.2991,"la2":30.254,"lo1":-89.0895,"lo2":-89.0444,"dy":0.0017,"dx":0.0017,"nx":28,"ny":28,"refTime":"2025-08-06T21:00:00:Z","depth":0,"parameterNumber":3,"parameterNumberName":"V-component_of_WINDS"},"data":[0,0,0,0,0,0,0,0,0,0,0,0,0,0,0,0,0,0,0,0,0,0,0,0,0,0,0,0,0,0,0,0,0,0,0,0,0,0,0,0,0,0,0,0,0,0,0,0,0,0,0,0,0,0,0,0,0,0,3.1666,3.1665,0,3.1511,3.1509,3.1507,3.1441,3.1442,3.1442,3.1442,3.1274,3.127,3.1265,0,0,0,0,0,0,0,0,0,0,0,0,0,3.19,3.1897,3.1666,3.1664,3.1662,3.1511,3.1509,3.1506,3.1441,3.1442,3.1442,3.1442,3.1276,3.127,3.1265,0,0,0,0,0,0,0,0,0,0,0,0,0,3.1777,3.1895,3.1667,3.1612,3.1605,3.1511,3.1509,3.1506,3.1441,3.1442,3.1442,3.1443,3.1278,3.1271,3.1264,3.121,0,0,3.1242,3.1239,0,0,0,0,0,0,0,0,3.1784,3.1768,3.1622,3.1615,3.1608,3.1496,3.153,3.1406,3.1441,3.1503,3.1442,3.1443,3.1347,3.1334,3.1304,3.1202,3.1195,3.1241,3.1237,3.1234,3.1232,0,0,0,0,0,0,0,3.1793,3.1775,3.1604,3.162,3.1611,3.1593,3.1576,3.1506,3.1424,3.1498,3.1493,3.1476,3.1343,3.1311,3.1299,3.1193,3.1242,3.1235,3.1231,3.1228,3.1039,3.1039,0,0,0,0,0,0,3.1811,3.1782,3.1609,3.16,3.1699,3.1588,3.1569,3.1531,3.1425,3.1409,3.1475,3.1473,3.1323,3.1308,3.1293,3.1223,3.1234,3.1227,3.1223,3.104,3.1039,3.1039,0,0,0,0,0,0,3.1817,3.1797,3.1616,3.169,3.1665,3.1584,3.1542,3.1528,3.1495,3.1408,3.1392,3.1458,3.1323,3.1303,3.1232,3.1217,3.1224,3.1218,3.1041,3.104,3.1039,3.1083,0,0,0,0,0,0,3.1824,3.1799,3.1779,3.169,3.1662,3.1559,3.1541,3.1525,3.1484,3.148,3.1387,3.1372,3.1322,3.1243,3.1225,3.1207,3.1212,3.1042,3.1041,3.1039,3.1083,3.1084,3.1085,0,0,0,0,0,3.1832,3.1796,3.1778,3.1758,3.1636,3.1558,3.1542,3.1487,3.1483,3.1462,3.1406,3.1375,3.1222,3.1236,3.1215,3.1195,3.1043,3.1041,3.1039,3.1082,3.1084,3.1085,0,0,0,0,0,0,3.1881,3.1783,3.1762,3.1697,3.1637,3.1548,3.1518,3.149,3.1427,3.1426,3.1358,3.1337,3.1272,3.1226,3.1244,3.1138,3.113,3.1124,3.1169,3.117,3.1171,3.1182,3.1206,0,0,0,0,0,3.1886,3.1834,3.1749,3.1699,3.167,3.16,3.1564,3.1528,3.1462,3.1435,3.1374,3.1309,3.1246,3.1206,3.1143,3.1077,3.1055,3.1052,3.1054,3.1055,3.105,3.1011,3.1009,3.1033,3.1033,3.1033,0,0,3.1891,3.1831,3.1802,3.1707,3.1657,3.1602,3.1579,3.1522,3.148,3.1425,3.1355,3.1308,3.1231,3.1163,3.1129,3.1122,3.1039,3.1053,3.1054,3.1048,3.1009,3.1007,3.1005,3.1032,3.1032,3.1032,0,0,3.1874,3.1825,3.1777,3.1728,3.1653,3.1607,3.1596,3.1512,3.1479,3.1409,3.1367,3.1315,3.1208,3.1156,3.1115,3.1081,3.105,3.1063,3.1067,3.103,3.1028,3.1026,3.1014,3.101,3.1058,3.1059,3.1059,0,3.189,3.1809,3.1756,3.1702,3.1662,3.1614,3.1564,3.1518,3.1425,3.1397,3.1393,3.1259,3.1204,3.1122,3.1115,3.1083,3.1067,3.1072,3.1034,3.1031,3.1028,3.1015,3.1011,3.106,3.106,3.106,3.106,0,3.1832,3.1777,3.1748,3.1663,3.1619,3.1568,3.1505,3.1467,3.1435,3.1389,3.1317,3.125,3.1173,3.1152,3.1118,3.1065,3.1064,3.1047,3.1037,3.1029,3.1015,3.101,3.1063,3.1063,3.1062,3.1061,0,0,3.1839,3.1729,3.1718,3.168,3.1595,3.155,3.1496,3.1425,3.1393,3.1331,3.1283,3.1196,3.1181,3.1135,3.1095,3.1064,3.1041,3.1051,3.1048,3.105,3.0978,3.099,3.0985,3.1021,3.102,3.1019,3.0984,0,3.1809,3.1714,3.1666,3.1591,3.1538,3.1493,3.1446,3.1388,3.1345,3.1292,3.1243,3.1182,3.1167,3.1139,3.1106,3.1051,3.1025,3.1053,3.0974,3.0972,3.0993,3.0978,3.099,3.096,3.0979,3.0978,3.0977,0,3.1761,3.1704,3.1625,3.1548,3.1524,3.1483,3.1414,3.1365,3.1298,3.1269,3.1219,3.1181,3.1122,3.1119,3.1035,3.1055,3.102,3.0989,3.0986,3.0975,3.0973,3.0965,3.0949,3.0944,3.0968,3.0969,3.097,0,3.1773,3.1676,3.1616,3.1584,3.1493,3.1465,3.1426,3.136,3.132,3.1259,3.1233,3.1165,3.1127,3.1075,3.1019,3.1023,3.0941,3.0933,3.0913,3.0914,3.0895,3.0897,3.0872,3.0876,3.0876,3.0876,3.0876,0,3.1744,3.1697,3.162,3.1583,3.1529,3.1473,3.142,3.1377,3.1319,3.1271,3.1228,3.1184,3.1114,3.1061,3.1017,3.0954,3.0937,3.091,3.0899,3.0913,3.0916,3.0887,3.0887,3.0875,3.0875,3.0876,3.0876,0,3.1746,3.1694,3.1625,3.1546,3.1525,3.1488,3.1419,3.1381,3.1337,3.1277,3.1259,3.1189,3.1124,3.1065,3.0977,3.0948,3.0884,3.087,3.0907,3.09,3.0883,3.0885,3.0837,3.0827,3.084,3.084,3.084,0,3.173,3.1694,3.1612,3.1578,3.1541,3.1487,3.1447,3.1392,3.1352,3.1275,3.1245,3.1179,3.1121,3.102,3.0959,3.0893,3.0876,3.0864,3.0865,3.0881,3.0874,3.0876,3.0872,3.0864,3.0864,3.0864,3.0864,0,3.1707,3.1684,3.163,3.1568,3.1523,3.147,3.1416,3.139,3.1324,3.1282,3.1217,3.1173,3.1087,3.102,3.0947,3.0903,3.0872,3.0865,3.0856,3.0869,3.0892,3.0879,3.0907,3.0865,3.0865,3.0865,3.0865,3.0865,3.1698,3.1664,3.1602,3.1544,3.1498,3.1449,3.141,3.1362,3.1308,3.1235,3.1205,3.1139,3.1074,3.0974,3.0931,3.0877,3.087,3.0858,3.0855,3.0852,3.0855,3.0903,3.0864,3.0864,3.0864,3.0864,3.0863,0,3.1672,3.1631,3.1578,3.1505,3.146,3.1439,3.1378,3.134,3.1284,3.1228,3.1174,3.11,3.1036,3.0972,3.0904,3.0873,3.0857,3.0857,3.0857,3.0848,3.0865,3.0879,3.0871,3.0871,3.0871,3.0871,3.0871,3.0871,3.1652,3.1593,3.1563,3.148,3.1439,3.1376,3.1343,3.1297,3.1252,3.1172,3.112,3.1081,3.1021,3.0949,3.0889,3.0872,3.0848,3.0852,3.083,3.0847,3.0847,3.0846,3.0859,3.0847,3.0847,3.0817,3.0817,3.0817]}]]